Hourly Weather Roundup
Issued by NWS Central Illinois

Home | Current Version | Previous Version | Text Only | Print | Product List | Glossary On
Versions: 1 2 3 4 5 6 7 8 9 10 11 12 13 14 15 16 17 18 19 20 21 22 23 24 25 26 27 28 29 30 31 32 33 34 35 36 37 38 39 40 41 42 43 44 45 46 47 48 49 50
000
NZUS43 KILX 231110
HWRILX

AREA WEATHER ROUNDUP
NATIONAL WEATHER SERVICE, LINCOLN IL
600 AM CDT TUE SEP 23 2014


CITY           SKY/WX    TMP DP  RH WIND       PRES   REMARKS
BLOOMINGTON    CLEAR     47  43  86 S8        30.32R
CHAMPAIGN      CLEAR     48  45  89 SE7       30.32R
DECATUR        CLEAR     44  41  89 CALM      30.31R
FLORA          CLEAR     42  42  99 CALM      30.31R
GALESBURG      CLEAR    N/A N/A N/A E5        30.29S
JACKSONVILLE   CLEAR     45  42  91 E5        30.30S
LACON          CLEAR     43  41  93 CALM      30.30S
LAWRENCEVILLE  PTCLDY    44  42  93 CALM      30.32R FOG
LITCHFIELD     CLEAR     45  43  93 CALM      30.30R
$$


CITY           SKY/WX    TMP DP  RH WIND       PRES   REMARKS
LINCOLN        CLEAR     45  43  91 CALM      30.30R
MACOMB         CLEAR     41  40  99 CALM      30.31R
MATTOON        CLEAR     47  45  93 CALM      30.30S
MT CARMEL AP   FOG       43  41  93 CALM      30.31R VSB 1/2
OLNEY-NOBLE AP CLEAR     43  43 100 CALM      30.31R
PARIS          CLEAR     40  40 100 CALM      30.32S FOG
PEORIA         CLEAR     49  45  86 CALM      30.31R
PONTIAC        CLEAR     43  43 100 CALM      30.31R
RANTOUL        CLEAR     47  43  86 CALM      30.32S
ROBINSON       FOG       42  42 100 CALM      30.33R VSB 3/4
SPRINGFIELD    CLEAR     47  42  83 E5        30.30R
TAYLORVILLE    CLEAR     45  43  93 CALM      30.30R
$$

...REGIONAL REPORTS...


CITY           SKY/WX    TMP DP  RH WIND       PRES   REMARKS
CHICAGO O`HARE CLEAR     51  43  74 W3        30.30R
KANKAKEE         N/A     43  42  97 CALM      30.32S FOG
MOLINE         CLEAR     43  41  93 CALM      30.29R
MOUNT VERNON   CLEAR     43  37  81 CALM      30.30R
PITTSFIELD     PTCLDY    46  44  91 CALM      30.30R
QUINCY         CLEAR     51  41  68 SE6       30.27R
ROCKFORD       CLEAR     45  42  89 CALM      30.32R
$$


CITY           SKY/WX    TMP DP  RH WIND       PRES   REMARKS
BURLINGTON     CLEAR     49  47  93 CALM      30.28R
CEDAR RAPIDS   CLEAR     44  44 100 SE5       30.27R
DES MOINES     MOCLDY    54  49  83 S8        30.23S
KIRKSVILLE     CLEAR     48  32  53 S6        30.27S
OTTUMWA        CLEAR     50  46  86 S6        30.26R
ST LOUIS       PTCLDY    52  49  89 E3        30.29R
$$


CITY           SKY/WX    TMP DP  RH WIND       PRES   REMARKS
TERRE HAUTE    CLEAR     42  41  96 CALM      30.32R
EVANSVILLE     CLEAR     47  44  90 CALM      30.30R
INDIANAPOLIS   CLEAR     49  44  83 NE5       30.31R
LAFAYETTE      CLEAR     44  43  96 CALM      30.32R
MADISON        CLEAR     46  44  93 CALM      30.28R
MILWAUKEE      CLEAR     54  44  69 VRB3      30.28S
$$




USA.gov is the U.S. government's official web portal to all federal, state and local government web resources and services.